SWA1315 KDCA-KCMH

Flight info

Callsign SWA1315
Flight time N/A
Altitude 40000
Route WYNGS5 RAMAY Q72 HACKS SCRLT2
Aircraft B737/M-SADE2E3GIJ4RWZ/LB1D1

Departure

Time 2026-05-04 20:48
Airport Ronald Reagan Washington National Airport (KDCA)

Arrival

Time N/A
Airport John Glenn Columbus International Airport (KCMH)
Time Latitude Longitude Altitude Speed Heading
2026-05-04 20:28 38.84648 -77.04204 23 ft 0 kts 333°
2026-05-04 20:39 38.84639 -77.04198 23 ft 4 kts 333°
2026-05-04 20:39 38.84615 -77.04183 27 ft 3 kts 333°
2026-05-04 20:39 38.84596 -77.04170 27 ft 4 kts 315°
2026-05-04 20:40 38.84586 -77.04142 28 ft 4 kts 265°
2026-05-04 20:40 38.84591 -77.04110 27 ft 4 kts 236°
2026-05-04 20:40 38.84608 -77.04096 27 ft 4 kts 164°
2026-05-04 20:40 38.84630 -77.04107 29 ft 3 kts 156°
2026-05-04 20:41 38.84655 -77.04121 26 ft 3 kts 156°
2026-05-04 20:41 38.84674 -77.04132 29 ft 2 kts 156°
2026-05-04 20:41 38.84676 -77.04133 29 ft 0 kts 156°
2026-05-04 20:43 38.84674 -77.04132 29 ft 1 kts 156°
2026-05-04 20:43 38.84650 -77.04118 27 ft 6 kts 156°
2026-05-04 20:43 38.84619 -77.04096 27 ft 9 kts 137°
2026-05-04 20:43 38.84651 -77.04024 25 ft 13 kts 24°
2026-05-04 20:44 38.84741 -77.03969 23 ft 17 kts 26°
2026-05-04 20:44 38.84920 -77.03952 23 ft 23 kts 355°
2026-05-04 20:44 38.85018 -77.03961 24 ft 21 kts 356°
2026-05-04 20:44 38.85179 -77.03979 24 ft 25 kts 355°
2026-05-04 20:45 38.85358 -77.03989 25 ft 17 kts
2026-05-04 20:45 38.85441 -77.04006 27 ft 13 kts 351°
2026-05-04 20:45 38.85548 -77.04028 26 ft 18 kts 349°
2026-05-04 20:45 38.85707 -77.04049 26 ft 24 kts 356°
2026-05-04 20:46 38.85867 -77.04068 25 ft 23 kts 359°
2026-05-04 20:46 38.85977 -77.03967 23 ft 19 kts 21°
2026-05-04 20:46 38.86029 -77.03950 23 ft 5 kts 17°
2026-05-04 20:46 38.86065 -77.03933 24 ft 6 kts 24°
2026-05-04 20:47 38.86087 -77.03873 22 ft 8 kts 125°
2026-05-04 20:47 38.86055 -77.03864 22 ft 2 kts 176°
2026-05-04 20:47 38.86022 -77.03861 24 ft 28 kts 176°
2026-05-04 20:48 38.85571 -77.03818 27 ft 102 kts 176°
2026-05-04 20:48 38.84643 -77.03730 52 ft 158 kts 178°
2026-05-04 20:48 38.83441 -77.03627 619 ft 176 kts 179°
2026-05-04 20:48 38.82144 -77.03565 1255 ft 194 kts 182°
2026-05-04 20:49 38.80698 -77.03579 1667 ft 219 kts 185°
2026-05-04 20:49 38.79073 -77.03640 1951 ft 247 kts 182°
2026-05-04 20:49 38.77354 -77.03707 2889 ft 245 kts 195°
2026-05-04 20:49 38.75851 -77.04769 3737 ft 248 kts 227°
2026-05-04 20:50 38.74904 -77.06684 4546 ft 251 kts 247°
2026-05-04 20:50 38.74637 -77.08307 4845 ft 251 kts 263°
2026-05-04 20:50 38.74503 -77.10758 5069 ft 259 kts 264°
2026-05-04 20:50 38.74395 -77.13003 5909 ft 257 kts 264°
2026-05-04 20:51 38.74273 -77.15363 7040 ft 255 kts 265°
2026-05-04 20:51 38.74145 -77.17647 7970 ft 258 kts 265°
2026-05-04 20:51 38.74006 -77.20003 9064 ft 259 kts 265°
2026-05-04 20:51 38.73864 -77.22312 10078 ft 261 kts 265°
2026-05-04 20:52 38.73871 -77.24736 10606 ft 282 kts 281°
2026-05-04 20:52 38.74633 -77.27187 10880 ft 311 kts 297°
2026-05-04 20:52 38.75486 -77.29027 11394 ft 319 kts 299°
2026-05-04 20:52 38.76686 -77.31475 12286 ft 324 kts 300°
2026-05-04 20:53 38.77898 -77.33922 13256 ft 327 kts 300°
2026-05-04 20:53 38.79260 -77.36692 14260 ft 332 kts 300°
2026-05-04 20:53 38.80452 -77.39138 15066 ft 337 kts 300°
2026-05-04 20:53 38.81682 -77.41682 15897 ft 342 kts 299°
2026-05-04 20:54 38.82944 -77.44305 16757 ft 347 kts 299°
2026-05-04 20:54 38.84223 -77.46972 17604 ft 352 kts 299°
2026-05-04 20:54 38.85526 -77.49696 18406 ft 358 kts 299°
2026-05-04 20:54 38.86817 -77.52398 19162 ft 361 kts 300°
2026-05-04 20:55 38.88149 -77.55188 19983 ft 363 kts 300°